�������l�o���
Date,Time,MP-1(��Sv/h),MP-2(��Sv/h),MP-3(��Sv/h),MP-4(��Sv/h),MP-5(��Sv/h),MP-6(��Sv/h),MP-7(��Sv/h),MP-8(��Sv/h),����,����(m/s),���J
2021/10/03,00:00,0.582,0.865,0.554,1.058,0.742,0.357,0.618,0.579,�k��,2.6,��
2021/10/03,00:10,0.583,0.868,0.555,1.057,0.741,0.357,0.619,0.580,�k��,3.0,��
2021/10/03,00:20,0.583,0.868,0.556,1.057,0.743,0.357,0.618,0.578,�k�k��,4.3,��
2021/10/03,00:30,0.583,0.868,0.556,1.058,0.742,0.357,0.617,0.580,�k�k��,4.2,��
2021/10/03,00:40,0.584,0.867,0.555,1.057,0.742,0.357,0.619,0.580,�k�k��,5.0,��
2021/10/03,00:50,0.582,0.868,0.555,1.056,0.744,0.358,0.617,0.580,�k,4.8,��
2021/10/03,01:00,0.582,0.868,0.555,1.058,0.744,0.357,0.620,0.580,�k,4.4,��
2021/10/03,01:10,0.582,0.868,0.555,1.058,0.742,0.358,0.618,0.580,�k�k��,4.1,��
2021/10/03,01:20,0.581,0.866,0.555,1.058,0.743,0.357,0.618,0.580,�k�k��,5.2,��
2021/10/03,01:30,0.580,0.869,0.555,1.060,0.742,0.356,0.620,0.579,�k,4.8,��
2021/10/03,01:40,0.582,0.868,0.555,1.058,0.743,0.357,0.617,0.580,�k,2.5,��
2021/10/03,01:50,0.583,0.868,0.555,1.058,0.742,0.356,0.618,0.580,�k,2.0,��
2021/10/03,02:00,0.582,0.868,0.555,1.059,0.742,0.358,0.619,0.579,���k��,0.9,��
2021/10/03,02:10,0.582,0.867,0.555,1.058,0.742,0.358,0.619,0.578,-,CALM,��
2021/10/03,02:20,0.582,0.867,0.555,1.059,0.743,0.357,0.618,0.579,��,1.4,��
2021/10/03,02:30,0.582,0.867,0.556,1.058,0.744,0.356,0.619,0.580,���k��,2.2,��
2021/10/03,02:40,0.581,0.867,0.556,1.059,0.741,0.357,0.617,0.578,��,3.1,��
2021/10/03,02:50,0.581,0.865,0.554,1.057,0.742,0.355,0.619,0.580,��,3.3,��
2021/10/03,03:00,0.581,0.869,0.555,1.057,0.743,0.356,0.619,0.580,��,3.2,��
2021/10/03,03:10,0.582,0.868,0.554,1.058,0.743,0.356,0.618,0.580,��,4.0,��
2021/10/03,03:20,0.582,0.865,0.554,1.057,0.743,0.357,0.618,0.578,��,3.9,��
2021/10/03,03:30,0.580,0.868,0.553,1.058,0.742,0.358,0.618,0.577,���쐼,3.6,��
2021/10/03,03:40,0.579,0.868,0.553,1.056,0.743,0.356,0.617,0.580,��,5.2,��
2021/10/03,03:50,0.579,0.869,0.554,1.058,0.743,0.356,0.618,0.578,���쐼,6.1,��
2021/10/03,04:00,0.581,0.866,0.555,1.058,0.741,0.357,0.616,0.580,��,4.9,��
2021/10/03,04:10,0.581,0.868,0.555,1.056,0.741,0.358,0.619,0.579,��,4.0,��
2021/10/03,04:20,0.582,0.866,0.554,1.058,0.741,0.357,0.616,0.580,���k��,2.6,��
2021/10/03,04:30,0.579,0.867,0.554,1.059,0.742,0.358,0.618,0.579,���k��,3.8,��
2021/10/03,04:40,0.581,0.868,0.556,1.057,0.743,0.356,0.617,0.579,��,4.5,��
2021/10/03,04:50,0.580,0.869,0.554,1.057,0.741,0.357,0.617,0.579,��,4.1,��
2021/10/03,05:00,0.580,0.867,0.555,1.056,0.742,0.357,0.618,0.580,��,3.3,��
2021/10/03,05:10,0.580,0.868,0.555,1.058,0.741,0.357,0.618,0.580,��,2.6,��
2021/10/03,05:20,0.581,0.865,0.554,1.058,0.743,0.357,0.616,0.580,��,3.7,��
2021/10/03,05:30,0.580,0.868,0.554,1.056,0.743,0.356,0.617,0.579,��,4.0,��
2021/10/03,05:40,0.580,0.866,0.553,1.058,0.743,0.357,0.617,0.579,��,4.0,��
2021/10/03,05:50,0.579,0.867,0.553,1.057,0.741,0.358,0.616,0.580,��,3.7,��
2021/10/03,06:00,0.582,0.866,0.554,1.057,0.741,0.355,0.618,0.579,��,5.6,��
2021/10/03,06:10,0.581,0.868,0.555,1.059,0.742,0.356,0.617,0.580,��,6.6,��
2021/10/03,06:20,0.581,0.868,0.555,1.057,0.743,0.356,0.617,0.580,��,7.2,��
2021/10/03,06:30,0.580,0.866,0.553,1.057,0.742,0.355,0.619,0.578,��,7.5,��
2021/10/03,06:40,0.580,0.865,0.555,1.059,0.742,0.356,0.618,0.580,��,6.0,��
2021/10/03,06:50,0.581,0.868,0.554,1.056,0.742,0.355,0.618,0.581,��,4.1,��
2021/10/03,07:00,0.582,0.867,0.555,1.058,0.741,0.357,0.619,0.580,��,1.2,��
2021/10/03,07:10,0.583,0.869,0.556,1.060,0.743,0.357,0.619,0.580,���쐼,0.6,��
2021/10/03,07:20,0.582,0.868,0.554,1.060,0.742,0.357,0.618,0.580,��,1.5,��
2021/10/03,07:30,0.583,0.867,0.553,1.058,0.744,0.358,0.618,0.580,��,1.5,��
2021/10/03,07:40,0.581,0.868,0.553,1.059,0.744,0.358,0.619,0.580,�k,2.0,��
2021/10/03,07:50,0.582,0.867,0.553,1.060,0.745,0.357,0.619,0.580,�k�k��,3.7,��
2021/10/03,08:00,0.582,0.867,0.556,1.056,0.743,0.357,0.619,0.580,�k�k��,3.1,��
2021/10/03,08:10,0.581,0.867,0.555,1.058,0.743,0.357,0.618,0.580,�k�k��,4.0,��
2021/10/03,08:20,0.581,0.866,0.553,1.059,0.745,0.356,0.615,0.581,�k,3.4,��
2021/10/03,08:30,0.580,0.869,0.555,1.058,0.745,0.357,0.616,0.580,�k,3.2,��
2021/10/03,08:40,0.579,0.869,0.556,1.063,0.745,0.357,0.617,0.581,�k,3.9,��
2021/10/03,08:50,0.582,0.868,0.555,1.060,0.744,0.356,0.618,0.579,�k,4.0,��
2021/10/03,09:00,0.580,0.866,0.555,1.061,0.743,0.358,0.618,0.578,�k,3.0,��
2021/10/03,09:10,0.581,0.870,0.555,1.061,0.743,0.355,0.618,0.579,�k,2.9,��
2021/10/03,09:20,0.581,0.867,0.555,1.060,0.745,0.357,0.617,0.579,�k,3.9,��
2021/10/03,09:30,0.582,0.870,0.552,1.061,0.744,0.357,0.616,0.578,�k��,3.6,��
2021/10/03,09:40,0.583,0.870,0.554,1.062,0.744,0.355,0.617,0.577,�k��,4.4,��
2021/10/03,09:50,0.583,0.870,0.555,1.062,0.745,0.355,0.618,0.579,�k�k��,4.5,��
2021/10/03,10:00,0.583,0.869,0.555,1.061,0.745,0.357,0.618,0.578,�k��,4.0,��
2021/10/03,10:10,0.582,0.868,0.556,1.060,0.746,0.355,0.617,0.579,�k��,3.7,��
2021/10/03,10:20,0.583,0.870,0.554,1.063,0.746,0.356,0.618,0.579,���k��,4.1,��
2021/10/03,10:30,0.582,0.868,0.556,1.061,0.745,0.357,0.618,0.581,�k�k��,4.8,��
2021/10/03,10:40,0.582,0.872,0.554,1.058,0.747,0.357,0.618,0.579,�k��,4.9,��
2021/10/03,10:50,0.585,0.869,0.556,1.063,0.746,0.357,0.617,0.579,�k�k��,4.8,��
2021/10/03,11:00,0.583,0.872,0.555,1.060,0.747,0.356,0.618,0.580,�k��,4.4,��
2021/10/03,11:10,0.585,0.870,0.556,1.061,0.748,0.356,0.618,0.579,���k��,4.4,��
2021/10/03,11:20,0.584,0.871,0.555,1.060,0.748,0.355,0.617,0.579,���k��,3.9,��
2021/10/03,11:30,0.585,0.873,0.557,1.060,0.747,0.355,0.618,0.579,���k��,2.8,��
2021/10/03,11:40,0.583,0.872,0.555,1.062,0.747,0.357,0.619,0.579,���k��,2.6,��
2021/10/03,11:50,0.582,0.872,0.556,1.062,0.748,0.356,0.619,0.578,���쓌,2.0,��
2021/10/03,12:00,0.584,0.872,0.556,1.062,0.747,0.357,0.619,0.579,�k��,2.3,��
2021/10/03,12:10,0.583,0.872,0.556,1.062,0.747,0.358,0.619,0.579,���k��,2.3,��
2021/10/03,12:20,0.584,0.873,0.557,1.061,0.751,0.356,0.617,0.579,��,2.6,��
2021/10/03,12:30,0.584,0.872,0.556,1.062,0.749,0.356,0.619,0.580,�k��,1.5,��
2021/10/03,12:40,0.586,0.874,0.558,1.062,0.748,0.357,0.618,0.578,���k��,2.0,��
2021/10/03,12:50,0.582,0.873,0.556,1.063,0.748,0.356,0.618,0.580,���k��,1.7,��
2021/10/03,13:00,0.584,0.872,0.557,1.061,0.749,0.356,0.619,0.579,���k��,2.6,��
2021/10/03,13:10,0.585,0.876,0.556,1.062,0.750,0.356,0.619,0.579,���쓌,2.5,��
2021/10/03,13:20,0.583,0.875,0.556,1.062,0.750,0.356,0.619,0.579,��,2.9,��
2021/10/03,13:30,0.583,0.875,0.557,1.063,0.749,0.356,0.618,0.579,���쓌,2.5,��
2021/10/03,13:40,0.585,0.877,0.557,1.061,0.750,0.357,0.618,0.579,�쓌,3.9,��
2021/10/03,13:50,0.585,0.874,0.556,1.064,0.750,0.357,0.620,0.580,�쓌,4.3,��
2021/10/03,14:00,0.586,0.874,0.556,1.065,0.750,0.357,0.620,0.577,��쓌,3.3,��
2021/10/03,14:10,0.584,0.874,0.556,1.062,0.752,0.357,0.619,0.580,��쓌,4.7,��
2021/10/03,14:20,0.584,0.877,0.557,1.065,0.750,0.358,0.620,0.581,��쓌,4.8,��
2021/10/03,14:30,0.584,0.876,0.555,1.061,0.750,0.357,0.619,0.580,��쓌,5.7,��
2021/10/03,14:40,0.585,0.875,0.557,1.061,0.751,0.357,0.620,0.580,��,5.1,��
2021/10/03,14:50,0.585,0.878,0.557,1.063,0.751,0.357,0.619,0.580,��쓌,6.2,��
2021/10/03,15:00,0.585,0.875,0.558,1.061,0.749,0.356,0.619,0.579,��쓌,5.9,��
2021/10/03,15:10,0.585,0.876,0.557,1.064,0.751,0.358,0.619,0.579,��,5.2,��
2021/10/03,15:20,0.584,0.876,0.558,1.064,0.752,0.356,0.621,0.580,��쓌,6.6,��
2021/10/03,15:30,0.583,0.878,0.558,1.062,0.751,0.357,0.618,0.579,��쓌,6.3,��
2021/10/03,15:40,0.583,0.876,0.558,1.065,0.750,0.356,0.618,0.578,��,6.2,��
2021/10/03,15:50,0.585,0.875,0.557,1.062,0.750,0.358,0.619,0.579,��,8.0,��
2021/10/03,16:00,0.584,0.875,0.556,1.064,0.749,0.358,0.619,0.581,��쓌,6.3,��
2021/10/03,16:10,0.584,0.878,0.556,1.065,0.751,0.358,0.619,0.579,��,7.3,��
2021/10/03,16:20,0.584,0.874,0.558,1.063,0.750,0.358,0.619,0.580,��쓌,7.9,��
2021/10/03,16:30,0.585,0.876,0.557,1.064,0.750,0.359,0.620,0.579,��쓌,7.4,��
2021/10/03,16:40,0.584,0.874,0.557,1.065,0.751,0.358,0.620,0.580,��,7.9,��
2021/10/03,16:50,0.585,0.875,0.557,1.066,0.751,0.359,0.620,0.578,��,7.4,��
2021/10/03,17:00,0.584,0.876,0.556,1.064,0.750,0.359,0.620,0.581,��,7.5,��
2021/10/03,17:10,0.584,0.876,0.558,1.066,0.750,0.359,0.619,0.581,��,7.2,��
2021/10/03,17:20,0.584,0.878,0.558,1.067,0.752,0.359,0.619,0.582,��,7.9,��
2021/10/03,17:30,0.584,0.878,0.556,1.064,0.752,0.360,0.621,0.581,��,8.3,��
2021/10/03,17:40,0.585,0.879,0.558,1.064,0.753,0.360,0.621,0.581,��,8.0,��
2021/10/03,17:50,0.585,0.878,0.558,1.065,0.749,0.359,0.620,0.582,��,8.2,��
2021/10/03,18:00,0.584,0.881,0.558,1.065,0.753,0.361,0.620,0.582,��,8.3,��
2021/10/03,18:10,0.584,0.879,0.559,1.065,0.752,0.359,0.622,0.581,��,9.2,��
2021/10/03,18:20,0.583,0.878,0.560,1.065,0.752,0.359,0.622,0.580,��,9.1,��
2021/10/03,18:30,0.585,0.878,0.559,1.064,0.752,0.358,0.621,0.582,��,9.0,��
2021/10/03,18:40,0.585,0.879,0.559,1.064,0.754,0.360,0.621,0.582,��,8.4,��
2021/10/03,18:50,0.585,0.881,0.558,1.065,0.756,0.359,0.620,0.579,��,9.4,��
2021/10/03,19:00,0.585,0.880,0.561,1.068,0.754,0.359,0.621,0.580,��,8.3,��
2021/10/03,19:10,0.586,0.881,0.560,1.066,0.753,0.358,0.621,0.581,��,8.3,��
2021/10/03,19:20,0.585,0.881,0.560,1.065,0.754,0.360,0.621,0.582,��,7.4,��
2021/10/03,19:30,0.586,0.881,0.559,1.065,0.753,0.358,0.620,0.582,��,7.7,��
2021/10/03,19:40,0.587,0.880,0.559,1.065,0.753,0.359,0.622,0.581,��,8.1,��
2021/10/03,19:50,0.585,0.883,0.560,1.066,0.753,0.358,0.621,0.582,��,6.7,��
2021/10/03,20:00,0.587,0.880,0.560,1.064,0.755,0.359,0.621,0.583,��,6.1,��
2021/10/03,20:10,0.586,0.880,0.558,1.067,0.754,0.358,0.622,0.582,��,4.4,��
2021/10/03,20:20,0.587,0.882,0.558,1.064,0.753,0.357,0.623,0.581,��,4.0,��
2021/10/03,20:30,0.587,0.880,0.559,1.065,0.753,0.359,0.620,0.582,��쐼,4.4,��
2021/10/03,20:40,0.586,0.878,0.559,1.065,0.753,0.358,0.621,0.581,��쐼,4.5,��
2021/10/03,20:50,0.587,0.879,0.558,1.065,0.753,0.359,0.621,0.580,��쐼,4.3,��
2021/10/03,21:00,0.585,0.878,0.558,1.066,0.754,0.359,0.621,0.583,��쐼,3.9,��
2021/10/03,21:10,0.586,0.881,0.559,1.064,0.753,0.358,0.620,0.582,��쐼,5.0,��
2021/10/03,21:20,0.586,0.879,0.560,1.065,0.753,0.358,0.621,0.580,��쐼,4.8,��
2021/10/03,21:30,0.587,0.881,0.556,1.064,0.751,0.358,0.620,0.581,��쐼,3.9,��
2021/10/03,21:40,0.588,0.877,0.558,1.066,0.753,0.358,0.621,0.581,��,4.4,��
2021/10/03,21:50,0.587,0.879,0.558,1.065,0.752,0.359,0.619,0.582,��,8.0,��
2021/10/03,22:00,0.587,0.879,0.561,1.065,0.752,0.358,0.620,0.581,��,9.1,��
2021/10/03,22:10,0.586,0.878,0.559,1.064,0.752,0.358,0.622,0.582,��,8.2,��
2021/10/03,22:20,0.588,0.880,0.560,1.064,0.753,0.358,0.621,0.583,��,6.7,��
2021/10/03,22:30,0.588,0.877,0.560,1.067,0.754,0.359,0.621,0.582,��,8.0,��
2021/10/03,22:40,0.585,0.877,0.560,1.064,0.752,0.358,0.620,0.581,��,7.5,��
2021/10/03,22:50,0.587,0.880,0.559,1.065,0.751,0.358,0.622,0.582,��,7.7,��
2021/10/03,23:00,0.588,0.878,0.558,1.063,0.753,0.358,0.619,0.581,��,7.4,��
2021/10/03,23:10,0.588,0.877,0.560,1.065,0.753,0.358,0.620,0.582,��,7.4,��
2021/10/03,23:20,0.589,0.879,0.559,1.064,0.754,0.359,0.619,0.581,��,7.0,��
2021/10/03,23:30,0.589,0.877,0.559,1.063,0.754,0.358,0.620,0.581,��,7.5,��
2021/10/03,23:40,0.586,0.877,0.558,1.064,0.754,0.359,0.619,0.581,��,8.2,��
2021/10/03,23:50,0.586,0.878,0.557,1.064,0.754,0.358,0.621,0.580,��,8.9,��
